This is the latest recevied weather packets stored in our database for station/object IU1OPQ-3. If no packets are shown the sender has not sent any weather packets the latest 10 day(s).
| Time | Temp. | Humidity | Pressure | Rain* | Wind** | Luminosity | Snow |
|---|---|---|---|---|---|---|---|
| 1778128200 | 10.56° C | 98% | 1011.7 hPa | 0 mm | - | - | - |
| 1778127300 | 10.56° C | 97% | 1011.5 hPa | 0 mm | - | - | - |
| 1778126401 | 10.56° C | 97% | 1011.4 hPa | 0 mm | - | - | - |
| 1778125500 | 10.56° C | 97% | 1011.5 hPa | 0 mm | - | - | - |
| 1778124601 | 10.56° C | 97% | 1011.4 hPa | 0 mm | - | - | - |
| 1778123701 | 10.56° C | 96% | 1011.3 hPa | 0 mm | - | - | - |
| 1778122801 | 10.56° C | 97% | 1011.2 hPa | 0 mm | - | - | - |
| 1778121901 | 10.56° C | 96% | 1011.4 hPa | 0 mm | - | - | - |
| 1778121001 | 10.56° C | 96% | 1011.3 hPa | 0 mm | - | - | - |
| 1778120101 | 10.56° C | 98% | 1011.4 hPa | 0 mm | - | - | - |
| 1778119201 | 11.11° C | 97% | 1011.3 hPa | 0 mm | - | - | - |
| 1778118300 | 11.11° C | 96% | 1011 hPa | 0 mm | - | - | - |
| 1778117400 | 11.11° C | 96% | 1011 hPa | 0.25 mm | - | - | - |
| 1778116500 | 11.11° C | 95% | 1010.9 hPa | 0.25 mm | - | - | - |
| 1778115601 | 11.11° C | 95% | 1010.8 hPa | 1.52 mm | - | - | - |
| 1778114701 | 11.11° C | 96% | 1010.8 hPa | 1.78 mm | - | - | - |
| 1778113800 | 11.11° C | 96% | 1010.8 hPa | 1.78 mm | - | - | - |
| 1778112901 | 11.11° C | 97% | 1010.8 hPa | 1.52 mm | - | - | - |
| 1778112001 | 11.11° C | 97% | 1011.1 hPa | 0 mm | - | - | - |
| 1778111101 | 11.11° C | 96% | 1011 hPa | 0 mm | - | - | - |
| 1778110200 | 11.11° C | 96% | 1010.8 hPa | 0 mm | - | - | - |
| 1778109300 | 11.67° C | 94% | 1010.6 hPa | 0 mm | - | - | - |
| 1778108400 | 12.22° C | 89% | 1010.7 hPa | 0 mm | - | - | - |
| 1778107501 | 11.67° C | 90% | 1010.4 hPa | 0 mm | - | - | - |
| 1778106601 | 12.22° C | 89% | 1010.5 hPa | 0 mm | - | - | - |
* Rain latest hour (hover to see other rain measurements)
** Current wind speed in m/s (hover to see current wind gust speed)